Weather History for Altus AFB, OK

Change the Weather History Date:

Thursday, April 25, 2013

  Actual Average Record
Temperature  
Mean Temperature 50 °F -  
Max Temperature 70 °F 74 °F 103 °F (2012)
Min Temperature 32 °F 50 °F 32 °F (2013)
Degree Days  
Heating Degree Days 14    
Moisture  
Dew Point 33 °F    
Average Humidity 37    
Maximum Humidity 84    
Minimum Humidity 21    
Precipitation  
Precipitation 0.00 in - - ()
Sea Level Pressure  
Sea Level Pressure 30.19 in    
Wind  
Wind Speed 9 mph (SE)    
Max Wind Speed 21 mph    
Max Gust Speed 23 mph    
Visibility 10 miles    
Events      
Averages and records for this station are not official NWS values.
T = Trace of Precipitation, MM = Missing Value Source: NWS Daily Summary

Daily Weather History Graph

Daily Weather History Graph

Search for Another Location

Airport:

Trip Planner

Search our weather history database for the weather conditions in past years. The results will help you decide how hot, cold, wet, or windy it might be!

Date:

Astronomy

Apr. 25, 2013 Rise Set
Actual Time 6:53 AM CDT 8:17 PM CDT
Civil Twilight 6:26 AM CDT 8:44 PM CDT
Nautical Twilight 5:54 AM CDT 9:15 PM CDT
Astronomical Twilight 5:21 AM CDT 9:49 PM CDT
Moon 8:31 PM CDT (4/25) 6:37 AM CDT (4/25)
Length of Visible Light 14h 17m
Length of Day
13h 24m
Full, 100% of the Moon is Illuminated
Apr 25
Full
Apr 25
Full
May 2
Last Quarter
May 9
New
May 17
First Quarter

Hourly Weather History & Observations

Time (CDT) Temp. Windchill Dew Point Humidity Pressure Visibility Wind Dir Wind Speed Gust Speed Precip Events Conditions
5:58 AM 35.6 °F - 28.4 °F 75% 30.32 in 10.0 mi Calm Calm - N/A   Clear
6:58 AM 32.7 °F 29.6 °F 27.5 °F 81% 30.33 in 10.0 mi NNE 3.5 mph - N/A   Clear
7:58 AM 37.0 °F - 32.5 °F 84% 30.34 in 10.0 mi NE 2.3 mph - N/A   Clear
8:58 AM 45.9 °F - 34.9 °F 66% 30.34 in 10.0 mi ESE 2.3 mph - N/A   Clear
9:58 AM 51.8 °F - 33.3 °F 49% 30.32 in 10.0 mi SE 5.8 mph - N/A   Clear
10:58 AM 56.3 °F - 35.1 °F 45% 30.32 in 10.0 mi South 5.8 mph - N/A   Partly Cloudy
11:58 AM 60.4 °F - 34.7 °F 38% 30.31 in 10.0 mi SE 10.4 mph - N/A   Mostly Cloudy
12:58 PM 63.9 °F - 31.6 °F 30% 30.30 in 10.0 mi SSE 12.7 mph - N/A   Mostly Cloudy
1:58 PM 63.5 °F - 32.2 °F 31% 30.24 in 10.0 mi SE 12.7 mph - N/A   Scattered Clouds
2:58 PM 66.9 °F - 30.4 °F 26% 30.24 in 10.0 mi SSE 12.7 mph - N/A   Overcast
3:02 PM 68.0 °F - 30.2 °F 24% 30.24 in 10.0 mi SE 15.0 mph - N/A   Overcast
3:58 PM 69.8 °F - 29.7 °F 22% 30.19 in 10.0 mi SE 18.4 mph - N/A   Scattered Clouds
4:58 PM 69.3 °F - 29.1 °F 22% 30.15 in 10.0 mi SE 18.4 mph - N/A   Mostly Cloudy
5:23 PM 69.8 °F - 30.2 °F 23% 30.14 in 10.0 mi SE 17.3 mph - N/A   Overcast
5:28 PM 69.8 °F - 30.2 °F 23% 30.14 in 10.0 mi SE 18.4 mph - N/A   Overcast
5:33 PM 69.8 °F - 28.4 °F 21% 30.14 in 10.0 mi SE 20.7 mph - N/A   Overcast
5:43 PM 69.8 °F - 30.2 °F 23% 30.13 in 10.0 mi SE 18.4 mph - N/A   Overcast
5:58 PM 68.5 °F - 29.8 °F 24% 30.13 in 10.0 mi SE 15.0 mph - N/A   Overcast
6:13 PM 69.8 °F - 30.2 °F 23% 30.13 in 10.0 mi SE 16.1 mph 23.0 mph N/A   Overcast
6:48 PM 68.0 °F - 32.0 °F 26% 30.11 in 10.0 mi ESE 13.8 mph - N/A   Mostly Cloudy
6:58 PM 67.6 °F - 32.0 °F 27% 30.12 in 10.0 mi ESE 11.5 mph - N/A   Mostly Cloudy
7:23 PM 66.2 °F - 32.0 °F 28% 30.10 in 10.0 mi ESE 13.8 mph - N/A   Overcast
7:53 PM 66.2 °F - 32.0 °F 28% 30.08 in 10.0 mi ESE 12.7 mph - N/A   Overcast
7:58 PM 66.0 °F - 33.1 °F 29% 30.08 in 10.0 mi ESE 11.5 mph - N/A   Mostly Cloudy
8:58 PM 63.9 °F - 36.7 °F 37% 30.09 in 10.0 mi East 12.7 mph - N/A   Overcast
9:58 PM 62.6 °F - 39.0 °F 42% 30.11 in 10.0 mi East 12.7 mph - N/A   Overcast
10:58 PM 61.9 °F - 40.6 °F 46% 30.13 in 10.0 mi ESE 12.7 mph - N/A   Overcast
11:33 PM 60.8 °F - 39.2 °F 45% 30.12 in 10.0 mi ESE 11.5 mph - N/A   Scattered Clouds
11:58 PM 60.3 °F - 39.9 °F 47% 30.09 in 10.0 mi SE 10.4 mph - N/A   Mostly Cloudy